Weather reports worldwide

Advertisment
South Newington, United Kingdom (99166): temperature & dewpoint: 04.07.2020 04:00:00 - 10.07.2020 04:00:00 (BST)South Newington, United Kingdom (99166): temperature -20cm & temperature -100cm: 04.07.2020 04:00:00 - 10.07.2020 04:00:00 (BST)South Newington, United Kingdom (99166): precipitation: 04.07.2020 04:00:00 - 10.07.2020 04:00:00 (BST)
Date & Time tt [°C] td [°C] tt -20cm [°C] tt -100cm [°C] rr [mm]
10.07.2020 04:00:00 11,4 10,8 - - 0,0
10.07.2020 03:00:00 11,6 11,1 - - 0,0
10.07.2020 02:00:00 11,7 11,2 - - 0,0
10.07.2020 01:00:00 11,7 11,2 - - 0,0
10.07.2020 00:00:00 11,9 11,2 - - 0,0
09.07.2020 23:00:00 12,3 11,6 - - 0,0
09.07.2020 22:00:00 12,7 12,0 - - 0,0
09.07.2020 21:00:00 13,4 12,7 - - 0,2
09.07.2020 20:00:00 14,1 13,4 - - 0,6
09.07.2020 19:00:00 14,7 14,1 - - 0,6
09.07.2020 18:00:00 14,9 14,3 - - 0,8
09.07.2020 17:00:00 15,6 14,9 - - 0,4
09.07.2020 16:00:00 16,7 15,6 - - 1,4
09.07.2020 15:00:00 17,5 16,7 - - 2,0
09.07.2020 14:00:00 17,6 15,7 - - 0,2
09.07.2020 13:00:00 18,1 15,5 - - 0,0
09.07.2020 12:00:00 18,7 15,4 - - 0,0
09.07.2020 11:00:00 18,4 15,6 - - 0,0
09.07.2020 10:00:00 17,2 15,0 17,7 15,0 0,0
09.07.2020 09:00:00 16,1 14,8 - - 0,0
09.07.2020 08:00:00 15,3 14,3 - - 0,0
09.07.2020 07:00:00 15,4 14,2 - - 0,0
09.07.2020 06:00:00 15,4 14,4 - - 0,0
09.07.2020 05:00:00 15,3 14,3 - - 0,0
09.07.2020 04:00:00 15,3 14,5 - - 0,2
09.07.2020 03:00:00 15,5 14,7 - - 0,2
09.07.2020 02:00:00 15,2 14,7 - - 1,0
09.07.2020 01:00:00 15,2 14,6 - - 0,8
09.07.2020 00:00:00 15,3 14,7 - - 1,2
08.07.2020 23:00:00 15,3 14,5 - - 0,0
08.07.2020 22:00:00 15,3 14,4 - - 0,2
08.07.2020 21:00:00 15,5 14,6 - - 0,0
08.07.2020 20:00:00 16,1 15,1 - - 0,4
08.07.2020 19:00:00 16,3 15,5 - - 1,8
08.07.2020 18:00:00 16,8 15,8 - - 1,4
08.07.2020 17:00:00 18,3 14,5 - - 0,0
08.07.2020 16:00:00 19,0 14,3 - - 0,0
08.07.2020 15:00:00 19,1 14,7 - - 0,0
08.07.2020 14:00:00 19,4 15,5 - - 0,0
08.07.2020 13:00:00 18,3 15,2 - - 0,0
08.07.2020 12:00:00 17,4 15,0 - - 0,0
08.07.2020 11:00:00 16,3 15,0 - - 0,0
08.07.2020 10:00:00 16,0 15,4 17,2 15,0 0,0
08.07.2020 09:00:00 15,3 14,8 - - 0,4
08.07.2020 08:00:00 14,9 14,5 - - 0,2
08.07.2020 07:00:00 14,5 14,1 - - 0,8
08.07.2020 06:00:00 14,3 14,0 - - 1,2
08.07.2020 05:00:00 14,2 13,9 - - 1,4
08.07.2020 04:00:00 14,3 13,8 - - 1,2
08.07.2020 03:00:00 14,3 13,8 - - 0,4
08.07.2020 02:00:00 14,2 13,7 - - 0,2
08.07.2020 01:00:00 13,9 13,5 - - 0,6
08.07.2020 00:00:00 13,3 12,9 - - 1,0
07.07.2020 23:00:00 13,0 12,6 - - 1,6
07.07.2020 22:00:00 12,8 12,3 - - 0,4
07.07.2020 21:00:00 12,7 11,8 - - 0,0
07.07.2020 20:00:00 12,8 11,6 - - 0,4
07.07.2020 19:00:00 12,7 11,3 - - 0,2
07.07.2020 18:00:00 12,6 10,5 - - 0,2
07.07.2020 17:00:00 15,5 9,0 - - 0,0
07.07.2020 16:00:00 16,0 9,3 - - 0,0
07.07.2020 15:00:00 16,3 9,1 - - 0,0
07.07.2020 14:00:00 16,5 7,5 - - 0,0
07.07.2020 13:00:00 16,8 9,4 - - 0,0
07.07.2020 12:00:00 16,8 9,7 - - 0,0
07.07.2020 11:00:00 17,8 10,7 - - 0,0
07.07.2020 10:00:00 16,7 10,8 16,9 15,0 0,0
07.07.2020 09:00:00 15,3 9,6 - - 0,0
07.07.2020 08:00:00 14,3 9,9 - - 0,0
07.07.2020 07:00:00 10,8 10,2 - - 0,0
07.07.2020 06:00:00 9,3 8,7 - - 0,0
07.07.2020 05:00:00 9,2 8,6 - - 0,0
07.07.2020 04:00:00 8,9 8,3 - - 0,0
07.07.2020 03:00:00 8,1 7,6 - - 0,0
07.07.2020 02:00:00 6,9 6,3 - - 0,0
07.07.2020 01:00:00 7,1 6,1 - - 0,0
07.07.2020 00:00:00 8,9 7,1 - - 0,0
06.07.2020 23:00:00 10,2 7,6 - - 0,0
06.07.2020 22:00:00 10,6 7,1 - - 0,0
06.07.2020 21:00:00 13,4 5,9 - - 0,0
06.07.2020 20:00:00 15,7 5,7 - - 0,0
06.07.2020 19:00:00 16,6 5,7 - - 0,0
06.07.2020 18:00:00 18,3 5,8 - - 0,0
06.07.2020 17:00:00 19,0 9,1 - - 0,0
06.07.2020 16:00:00 17,9 9,5 - - 0,0
06.07.2020 15:00:00 16,8 8,9 - - 0,0
06.07.2020 14:00:00 17,5 9,6 - - 0,0
06.07.2020 13:00:00 15,5 9,7 - - 0,0
06.07.2020 12:00:00 15,0 8,0 - - 0,0
06.07.2020 11:00:00 15,6 7,6 - - 0,0
06.07.2020 10:00:00 15,4 7,9 17,4 15,0 0,0
06.07.2020 09:00:00 15,2 8,3 - - 0,0
06.07.2020 08:00:00 14,6 8,1 - - 0,0
06.07.2020 07:00:00 12,8 8,5 - - 0,0
06.07.2020 06:00:00 11,6 8,0 - - 0,0
06.07.2020 05:00:00 11,4 8,1 - - 0,0
06.07.2020 04:00:00 11,4 7,4 - - 0,0
06.07.2020 03:00:00 12,3 8,0 - - 0,0
06.07.2020 02:00:00 12,3 7,4 - - 0,0
06.07.2020 01:00:00 12,6 7,6 - - 0,0
06.07.2020 00:00:00 12,5 7,5 - - 0,0
05.07.2020 23:00:00 12,8 7,7 - - 0,0
05.07.2020 22:00:00 13,7 7,0 - - 0,0
05.07.2020 21:00:00 14,6 8,2 - - 0,0
05.07.2020 20:00:00 15,4 8,1 - - 0,0
05.07.2020 19:00:00 16,0 8,0 - - 0,0
05.07.2020 18:00:00 17,3 8,1 - - 0,0
05.07.2020 17:00:00 16,9 8,0 - - 0,0
05.07.2020 16:00:00 17,5 8,1 - - 0,0
05.07.2020 15:00:00 17,9 7,3 - - 0,0
05.07.2020 14:00:00 18,6 8,1 - - 0,0
05.07.2020 13:00:00 18,6 8,0 - - 0,0
05.07.2020 12:00:00 18,3 8,3 - - 0,0
05.07.2020 11:00:00 17,6 7,8 - - 0,0
05.07.2020 10:00:00 18,7 10,5 17,7 15,0 0,0
05.07.2020 09:00:00 16,8 9,5 - - 0,0
05.07.2020 08:00:00 17,2 12,0 - - 0,0
05.07.2020 07:00:00 16,8 13,5 - - 0,0
05.07.2020 06:00:00 15,9 13,5 - - 0,0
05.07.2020 05:00:00 16,6 14,0 - - 0,0
05.07.2020 04:00:00 16,2 14,9 - - 0,0
05.07.2020 03:00:00 16,7 14,8 - - 0,0
05.07.2020 02:00:00 16,4 14,6 - - 0,0
05.07.2020 01:00:00 16,4 14,1 - - 0,0
05.07.2020 00:00:00 16,4 14,3 - - 0,0
04.07.2020 23:00:00 16,4 14,2 - - 0,0
04.07.2020 22:00:00 16,6 14,1 - - 0,0
04.07.2020 21:00:00 17,0 14,2 - - 0,0
04.07.2020 20:00:00 17,6 14,4 - - 0,0
04.07.2020 19:00:00 18,5 14,8 - - 0,0
04.07.2020 18:00:00 18,3 14,6 - - 0,0
04.07.2020 17:00:00 18,2 15,0 - - 0,0
04.07.2020 16:00:00 19,1 15,0 - - 0,0
04.07.2020 15:00:00 18,2 15,4 - - 0,0
04.07.2020 14:00:00 17,8 14,8 - - 0,0
04.07.2020 13:00:00 18,1 14,7 - - 0,0
04.07.2020 12:00:00 17,2 14,6 - - 0,0
04.07.2020 11:00:00 17,1 14,4 - - 0,0
04.07.2020 10:00:00 17,3 14,4 17,7 15,0 0,0
04.07.2020 09:00:00 17,4 14,4 - - 0,0
04.07.2020 08:00:00 16,3 15,0 - - 0,0
04.07.2020 07:00:00 15,5 14,7 - - 0,0
04.07.2020 06:00:00 15,3 14,6 - - 0,0
04.07.2020 05:00:00 15,1 14,4 - - 0,0
04.07.2020 04:00:00 15,1 14,3 - - 0,0

tt = temperature
td = dewpoint
tt -20cm = temperature -20cm
tt -100cm = temperature -100cm
rr = precipitation

Next stations